Flag for U.S.A. Weather past 2 weeks in Tucson, Arizona, U.S.A.

Now
58 °F

Clear.


Feels Like: 57 °F
Forecast: 57 / 91 °F
Wind: 6 mph from East

Location: Davis-Monthan Air Force Base

Current Time: Mar 29, 2015 at 4:31:17 AM

Latest Report: Mar 29, 2015 at 3:58 AM


Visibility: 10 mi

Pressure: 29.96 "Hg

Humidity: 30%

Dew point: 27 °F

Location of TucsonLocation

Historic Weather in Tucson — Graph

°F

Tucson temperature yesterday

Maximum temperature yesterday: 90 °F (at 3:58 PM)
Minimum temperature yesterday: 52 °F (at 5:58 AM)
Average temperature yesterday: 70 °F

Past Weeks' High & Low Weather Summary

 TemperatureHumidityPressure
High90 °F (Mar 28, 3:58 PM)100% (Mar 19, 12:58 AM)30.12 "Hg (Mar 19, 12:58 AM)
Low49 °F (Mar 21, 5:58 AM)4% (Mar 27, 4:58 PM)29.82 "Hg (Mar 16, 4:58 PM)
Average66 °F36%29.98 "Hg
* Reported Mar 14 2:58 AM — Mar 29 2:58 AM, Tucson, Weather by CustomWeather, © 2015

Note: Actual official high and low records may vary slightly from our data, if they occured in-between our weather recording intervals... More about our weather records

Advertising

Tucson weather history for previous 24 hours

 ConditionsComfort  
Time TempWeatherWind HumidityBarometerVisibility
2:58 AM
Sun, Mar 29
59 °FClear.8 mph29%29.97 "Hg10 mi
12:58 AM61 °FClear.9 mph27%29.98 "Hg10 mi
11:58 PM
Sat, Mar 28
63 °FClear.7 mph24%29.98 "Hg10 mi
10:58 PM64 °FClear.6 mph23%29.97 "Hg10 mi
9:58 PM68 °FClear.7 mph22%29.96 "Hg10 mi
8:58 PM71 °FClear.No wind19%29.96 "Hg10 mi
7:58 PM76 °FClear.2 mph15%29.94 "Hg10 mi
6:58 PM80 °FClear.6 mph10%29.94 "Hg10 mi
4:58 PM89 °FSunny.13 mph7%29.92 "Hg10 mi
3:58 PM90 °FSunny.7 mph7%29.93 "Hg10 mi
1:58 PM87 °FSunny.10 mph7%29.97 "Hg10 mi
12:58 PM87 °FSunny.13 mph6%30.00 "Hg10 mi
11:58 AM84 °FSunny.7 mph8%30.03 "Hg10 mi
10:58 AM81 °FSunny.No wind11%30.04 "Hg10 mi
9:58 AM79 °FSunny.3 mph13%30.04 "Hg10 mi
7:58 AM64 °FSunny.7 mph25%30.05 "Hg10 mi
6:58 AM54 °FSunny.9 mph33%30.05 "Hg10 mi
5:58 AM52 °FClear.8 mph38%30.02 "Hg10 mi
4:58 AM54 °FClear.7 mph33%30.01 "Hg10 mi
Weather by CustomWeather, © 2015

See weather overviewHow to use our weather pages